Regional Weather Roundup
Issued by NWS

Home | Current Version | Previous Version | Graphics & Text | Print | Product List | Glossary On
Versions: 1 2 3 4 5 6 7 8 9 10 11 12 13 14 15 16 17 18 19 20 21 22 23 24 25 26 27 28 29 30 31 32 33 34 35 36 37 38 39 40 41 42 43 44 45 46 47 48 49 50
000
ASUS45 KSLC 221410
RWRUT

UTAH REGIONAL WEATHER ROUNDUP
NATIONAL WEATHER SERVICE SALT LAKE CITY UT
800 AM MDT TUE JUL 22 2014

UTZ001>011-023>025-221500-

NORTHERN UTAH

CITY           SKY/WX    TMP DP  RH WIND       PRES   REMARKS
HILL AFB       SUNNY     67  41  38 E20       30.23R
LOGAN          NOT AVBL
OGDEN          MOSUNNY   69  41  36 S9        30.21R
PROVO AIRPORT  SUNNY     66  37  34 E7        30.25R
SALT LAKE CITY PTSUNNY   70  45  40 SE5       30.20R
VERNAL         SUNNY     66  42  41 CALM      30.30R
WENDOVER       MOSUNNY   70  48  46 SW6       30.22R
HEBER CITY     SUNNY     55  41  58 CALM      30.34R
WEST JORDAN    SUNNY     72  45  37 CALM      30.23R

$$

UTZ012>022-026-027-221500-

SOUTHERN UTAH

CITY           SKY/WX    TMP DP  RH WIND       PRES   REMARKS
BRYCE CANYON   SUNNY     53  31  42 W7        30.47R
CEDAR CITY     SUNNY     62  28  27 SW5       30.30R
MILFORD        SUNNY     61  35  37 S7        30.26R
MOAB/CYNLANDS  SUNNY     73  26  17 CALM      30.22R
PRICE          SUNNY     73  24  16 NE3       30.33R
ST GEORGE      SUNNY     75  27  16 SE3       30.15R
KANAB            N/A     61  32  33 N3        30.31R

$$

REGIONAL REPORTS     COLORADO/ARIZONA

CITY           SKY/WX    TMP DP  RH WIND       PRES   REMARKS
CRAIG, CO      SUNNY     49  43  80 CALM      30.39R
GRAND JUNCTION SUNNY     73  32  22 S8        30.27S
RIFLE          SUNNY     62  40  44 CALM      30.37R
MONTROSE       SUNNY     68  36  30 E7        30.38R
CORTEZ         SUNNY     63  37  38 E5        30.35R
PAGE, AZ       SUNNY     80  27  14 E3        30.22R
GRAND CANYON   SUNNY     57  36  45 CALM      30.40R
KINGMAN        SUNNY     76  42  29 SE9       30.14R
FLAGSTAFF      SUNNY     59  41  51 CALM      30.43R

$$

REGIONAL REPORTS    NEVADA/IDAHO/WYOMING

CITY           SKY/WX    TMP DP  RH WIND       PRES   REMARKS
LAS VEGAS, NV  SUNNY     83  39  21 SW9       29.99R
ELY            SUNNY     54  32  43 CALM      30.34R
ELKO           PTSUNNY   58  51  78 E3        30.26R
POCATELLO, ID  SUNNY     65  54  67 CALM      30.25R
BURLEY         SUNNY     64  57  78 CALM      30.20S
EVANSTON, WY   SUNNY     60  35  39 E6        30.42R
ROCK SPRINGS   SUNNY     63  33  32 SE5       30.39S

$$


USA.gov is the U.S. government's official web portal to all federal, state and local government web resources and services.